Regional Weather Roundup
Issued by NWS Binghamton, NY

Home | Current Version | Previous Version | Text Only | Print | Product List | Glossary On
Versions: 1 2 3 4 5 6 7 8 9 10 11 12 13 14 15 16 17 18 19 20 21 22 23 24 25 26 27
000
ASUS41 KBGM 230810
RWRBGM

REGIONAL WEATHER ROUNDUP
NATIONAL WEATHER SERVICE BINGHAMTON NY
400 AM EDT SUN JUL 23 2017

Note: "fair" indicates few or no clouds below 12,000 feet with no
significant weather and/or obstructions to visibility.

* = Station(s) that does not report precipitation, such as rain,
snow, etc, also no thunder or fog.

NYZ009-015>018-022>025-036-037-044>046-055>057-062-230900
...Central New York...

CITY           SKY/WX    TMP DP  RH WIND       PRES   REMARKS
Binghamton     CLOUDY    62  61  96 NE7       29.80S
Cortland       CLOUDY    61  61 100 CALM      29.80S
Dansville      CLOUDY    68  64  87 CALM      29.78S
Elmira         CLOUDY    67  66  97 CALM      29.77F
Seneca Falls   CLOUDY    64  64 100 CALM      29.78F FOG
Ithaca         CLOUDY    63  62  97 E3        29.80S
Hamilton       CLOUDY    61  61 100 CALM      29.81R VSB 1/2
Hornell        CLOUDY    66  64  94 CALM      29.82S
Monticello     NOT AVBL
Norwich        FOG       61  61 100 CALM      29.81S VSB 1/4
Oneonta        CLEAR     59 N/A N/A SE3       29.82S
Penn Yan       CLOUDY    66  63  90 CALM      29.78F
Rome           CLEAR     62  62 100 CALM      29.79R
Sidney         CLOUDY   N/A N/A N/A CALM      29.80S FOG
Syracuse       MOCLDY    63  63 100 E3        29.77S
$$

PAZ038>040-043-044-047-048-072-230900
...Northeast Pennsylvania...

CITY           SKY/WX    TMP DP  RH WIND       PRES   REMARKS
Hazleton       DRIZZLE   68  66  94 CALM      29.83S
Scranton       CLOUDY    70  69  97 CALM      29.77S
$$
&&
KEY
WCI = Wind Chill Index
VSB = Visibility
HX  = Heat Index
$$




USA.gov is the U.S. government's official web portal to all federal, state and local government web resources and services.